TimeGMT,TemperatureF,Dew PointF,Humidity,Sea Level PressureIn,VisibilityMPH,Wind Direction,Wind SpeedMPH,Gust SpeedMPH,PrecipitationIn,Events,Conditions,WindDirDegrees,DateUTC
5:50 AM,49,42,69,29.80,19,West,11.5,,,,Mostly Cloudy,270,2012-11-23 05:50:00
8:50 AM,50,43,69,29.86,16,WSW,8.1,,,,Scattered Clouds,250,2012-11-23 08:50:00
8:50 AM,50.0,42.8,76,29.86,6.2,WSW,9.2,-,N/A,,Partly Cloudy,250,2012-11-23 08:50:00
9:20 AM,50.0,42.8,76,29.86,6.2,WSW,9.2,-,N/A,,Scattered Clouds,250,2012-11-23 09:20:00
9:50 AM,50.0,44.6,82,29.86,6.2,WSW,8.1,-,N/A,,Partly Cloudy,250,2012-11-23 09:50:00
10:20 AM,50.0,42.8,76,29.89,6.2,WSW,10.4,-,N/A,,Partly Cloudy,250,2012-11-23 10:20:00
10:50 AM,51.8,42.8,71,29.89,6.2,WSW,10.4,-,N/A,,Partly Cloudy,250,2012-11-23 10:50:00
11:20 AM,51.8,42.8,71,29.89,6.2,WSW,10.4,-,N/A,,Partly Cloudy,250,2012-11-23 11:20:00
11:50 AM,52,44,64,29.90,16,WSW,10.4,,,,Scattered Clouds,250,2012-11-23 11:50:00
11:50 AM,51.8,42.8,71,29.89,6.2,WSW,11.5,-,N/A,,Partly Cloudy,250,2012-11-23 11:50:00
12:20 PM,51.8,41.0,67,29.89,6.2,West,11.5,-,N/A,,Partly Cloudy,270,2012-11-23 12:20:00
1:20 PM,51.8,44.6,76,29.89,-9999.0,West,10.4,-,N/A,,Partly Cloudy,270,2012-11-23 13:20:00
1:50 PM,51.8,42.8,71,29.89,6.2,West,11.5,-,N/A,,Partly Cloudy,260,2012-11-23 13:50:00
2:20 PM,51.8,42.8,71,29.89,6.2,West,9.2,-,N/A,,Partly Cloudy,260,2012-11-23 14:20:00
2:50 PM,51,43,65,29.90,22,West,9.2,,,,,260,2012-11-23 14:50:00
3:20 PM,50.0,42.8,76,29.92,6.2,West,10.4,-,N/A,,Partly Cloudy,260,2012-11-23 15:20:00
3:50 PM,50.0,41.0,71,29.92,6.2,West,6.9,-,N/A,,Partly Cloudy,270,2012-11-23 15:50:00
4:20 PM,50.0,42.8,76,29.92,6.2,West,8.1,-,N/A,,Partly Cloudy,260,2012-11-23 16:20:00
4:50 PM,48.2,41.0,76,29.92,6.2,West,6.9,-,N/A,,Partly Cloudy,280,2012-11-23 16:50:00
5:20 PM,48.2,41.0,76,29.92,6.2,WNW,4.6,-,N/A,,Partly Cloudy,290,2012-11-23 17:20:00
5:50 PM,48,41,70,29.94,31,WNW,4.6,,,,Scattered Clouds,290,2012-11-23 17:50:00
8:50 PM,48,41,68,29.96,22,NNE,3.5,,,,Mostly Cloudy,20,2012-11-23 20:50:00
11:50 PM,49,41,65,29.94,28,East,8.1,,,,Overcast,80,2012-11-23 23:50:00